This demonstration page uses our WeatherBlox Daily Observations layout. Learn more.

Left ArrowRight Arrow

34.16533, -84.80231

Hourly Observations for July 4, 2017

Temp ( °F °C ) Dew Point ( °F °C ) Humidity (%) Winds ( mph kmh ) Pressure ( in mb ) Visibility ( mi km ) Precip ( " mm )
12:53 am 00:53 Clear 69 20.6 69 20.6 100 100 Calm 30.04 1017 10 16 0.00 0.00
1:53 am 01:53 Clear 67 19.4 67 19.4 100 100 Calm 30.04 1017 10 16 0.00 0.00
2:53 am 02:53 Mostly Cloudy 67 19.4 67 19.4 100 100 Calm 30.04 1017 10 16 0.00 0.00
3:53 am 03:53 Clear 66 18.9 66 18.9 100 100 Calm 30.04 1017 10 16 0.00 0.00
4:53 am 04:53 Clear 67 19.4 67 19.4 100 100 Calm 30.04 1017 10 16 0.00 0.00
5:53 am 05:53 Clear 67 19.4 67 19.4 100 100 Calm 30.05 1018 10 16 0.00 0.00
6:53 am 06:53 Sunny 67 19.4 67 19.4 100 100 Calm 30.06 1018 10 16 0.00 0.00
7:53 am 07:53 Sunny 71 21.7 70 21.1 96 96 Calm 30.08 1019 10 16 0.00 0.00
8:53 am 08:53 Sunny 76 24.4 72 22.2 88 88 Calm 30.09 1019 10 16 0.00 0.00
9:53 am 09:53 Sunny 80 26.7 74 23.3 82 82 Calm 30.08 1019 10 16 0.00 0.00
10:53 am 10:53 Sunny 84 28.9 74 23.3 72 72 Calm 30.08 1019 10 16 0.00 0.00
11:53 am 11:53 Mostly Cloudy 85 29.4 75 23.9 72 72 VRB 3 6 30.07 1018 10 16 0.00 0.00
12:53 pm 12:53 Partly Cloudy 86 30 74 23.3 67 67 VRB 5 7 30.06 1018 10 16 0.00 0.00
1:53 pm 13:53 Partly Cloudy 87 30.6 74 23.3 65 65 VRB 5 7 30.05 1018 10 16 0.00 0.00
2:21 pm 14:21 Mostly Cloudy with Nearby Thunderstorms 85 29.4 75 23.9 72 72 undefined N/A 30.06 1018 8 13 0.00 0.03
2:31 pm 14:31 Cloudy with Strong Thunderstorms 71 21.7 70 21.1 96 96 VRB 7 11 30.09 1019 2 3 0.08 2.03
2:43 pm 14:43 Cloudy with Strong Thunderstorms 69 20.6 69 20.6 100 100 VRB 3 6 30.09 1019 1 1 0.46 11.68
2:53 pm 14:53 Cloudy with Strong Thunderstorms 69 20.6 69 20.6 100 100 NNW 6 9 30.09 1019 1 1 0.68 17.27
2:59 pm 14:59 Cloudy with Thunderstorms 69 20.6 69 20.6 100 100 N 5 7 30.09 1019 2 3 0.01 0.25
3:02 pm 15:02 Cloudy with Thunderstorms 69 20.6 69 20.6 100 100 N 3 6 30.09 1019 3 5 0.02 0.51
3:25 pm 15:25 Mostly Cloudy with Nearby Thunderstorms 70 21.1 70 21.1 100 100 E 3 6 30.09 1019 10 16 0.02 0.51
3:43 pm 15:43 Mostly Sunny 72 22.2 72 22.2 100 100 VRB 3 6 30.06 1018 10 16 0.02 0.51
3:53 pm 15:53 Sunny 73 22.8 73 22.8 100 100 Calm 30.06 1018 10 16 0.02 0.51
4:40 pm 16:40 Sunny with Nearby Thunderstorms 76 24.4 74 23.3 94 94 Calm 30.06 1018 10 16 0.00 0.00
4:53 pm 16:53 Mostly Cloudy with Thunderstorms 74 23.3 73 22.8 97 97 VRB 7 11 30.09 1019 8 13 0.01 0.25
4:57 pm 16:57 Mostly Cloudy with Strong Thunderstorms 72 22.2 72 22.2 100 100 SSW 9 15 30.09 1019 2 3 0.09 2.29
5:14 pm 17:14 Mostly Cloudy with Thunderstorms 71 21.7 71 21.7 100 100 S 5 7 30.06 1018 3 5 0.23 5.84
5:28 pm 17:28 Partly Cloudy with Nearby Thunderstorms 71 21.7 71 21.7 100 100 S 5 7 30.03 1017 10 16 0.24 6.10
5:41 pm 17:41 Partly Cloudy with Light Rain 72 22.2 72 22.2 100 100 Calm 30.06 1018 10 16 0.24 6.10
5:53 pm 17:53 Sunny 72 22.2 72 22.2 100 100 Calm 30.05 1018 10 16 0.24 6.10
6:53 pm 18:53 Sunny 73 22.8 73 22.8 100 100 S 6 9 30.04 1017 10 16 0.00 0.00
7:53 pm 19:53 Sunny 74 23.3 73 22.8 97 97 Calm 30.04 1017 10 16 0.00 0.00
8:53 pm 20:53 Sunny 72 22.2 72 22.2 100 100 E 3 6 30.04 1017 10 16 0.00 0.00
9:53 pm 21:53 Clear 71 21.7 71 21.7 100 100 Calm 30.06 1018 9 14 0.00 0.00
10:53 pm 22:53 Clear with Mist and Fog 72 22.2 72 22.2 100 100 Calm 30.06 1018 6 10 0.00 0.00
11:53 pm 23:53 Clear with Mist and Fog 71 21.7 71 21.7 100 100 Calm 30.08 1019 5 8 0.00 0.00

Powered by AerisWeather